www.pogodaiklimat.ru

Погода и климат >> Архив погоды >> Россия >> Крым >> Ангарский Перевал


ПОГОДА на Ангарском Перевале

  • Прогноз погоды на Ангарском Перевале
  • Монитор погоды на Ангарском Перевале

АРХИВ ПОГОДЫ на Ангарском Перевале

Время (UTC), дата Ветер
(напр.,м/с)
 
Видим.   Явления Облачность Т
(С)
Тd
(С)
f
(%)
Тe
(С)
Тes
(С)
Комфортность P
(гПа)
Po
(гПа)
Тmin
(С)
Tmax
(С)
R
(мм)
R24
(мм)
S
(см)
03 19.04 СЗ 1 20 км 10/5 600 м
[Cb cap Ac lent Cs]
+0.4 -1.0 90 -2 -2 1019.7 927.2 0.0 0.6
06 19.04 З 2 20 км 9/9 300 м
[Cb cap]
+1.1 -0.9 86 -2 -2 1019.6 927.4 +0.3 0.6
09 19.04 С 2 20 км 9/9 300 м
[Cb cap]
+3.2 -3.6 61 +1 +2 1019.3 927.7
12 19.04 СЗ 2 20 км 9/9 300 м
[Cb cap]
+2.3 -4.0 63 -0 +1 1020.1 928.2
15 19.04 С 3
{10}
20 км 10/10 300 м
[Cb cap]
+0.3 -2.4 82 -4 -4 1021.5 928.8
18 19.04 СЗ 4
{11}
10 км слаб. ливневой снег 10/10 300 м
[Cb cap]
-0.7 -2.2 90 -6 -6 1021.8 928.8 +3.5 0.2
21 19.04 СЗ 3
{11}
10 км слаб. ливневой снег 10/10 300 м
[Cb cap]
-0.8 -2.3 90 -6 -6 1021.2 928.2
00 20.04 СЗ 2 10 км слаб. ливневой снег 10/10 300 м
[Cb cap]
-0.9 -2.2 91 -5 -5 1020.0 927.1
03 20.04 СЗ 2 500 м ливневой снег ?/? -0.4 -1.3 94 -4 -4 1019.1 926.4 -1.1 7
06 20.04 З 1 10 км в посл. час ливневой снег 9/8 300 м
[Cb cap Ac lent]
+1.7 -1.7 78 0 +1 1019.0 927.0 -1.1 13 13
09 20.04 З 2 20 км 9/6 300 м
[Cb cap Ac lent Ci fib]
+3.6 -0.1 77 +1 +5 1019.2 927.8
12 20.04 С 3 20 км 9/8 300 м
[Cb cap Ac lent]
+4.0 -0.3 74 +1 +2 1020.1 928.7
15 20.04 СЗ 2 20 км 9/8 600 м
[Cb cap Ac lent Ci fib]
+2.8 -1.1 75 -0 0 1021.4 929.5 5
18 20.04 СЗ 2 20 км 9/6 600 м
[Sc Ac As]
+2.3 -1.0 79 -1 -1 1022.3 930.2 +4.6
21 20.04 штиль 0 20 км 5/5 600 м
[Cu med, cong]
+3.2 -2.2 68 +3 +3 1022.0 930.2
00 21.04 З 1 20 км 3/3 600 м
[Cu med, cong Ci fib]
+2.3 -4.0 63 +1 +1 1021.3 929.3
03 21.04 З 1 20 км 3/0
[Ac lent]
+1.6 -3.5 69 0 0 1021.6 929.3 +0.6
06 21.04 З 1 20 км 3/1 600 м
[Cu hum Ci fib]
+4.3 -4.3 54 +4 +10 1021.2 929.8 +0.6 1
09 21.04 СВ 2 50 км 3/3 600 м
[Cu med, cong Ci fib]
+7.3 -3.1 48 +6 +17 опасность
простуды
1020.3 929.9
12 21.04 СВ 2 50 км 1/1 600 м
[Cu hum]
+8.1 -5.5 38 +7 +18 опасность
простуды
1019.9 929.7
15 21.04 С 1 50 км 3/3 600 м
[Cu med, cong Ci fib]
+6.3 -4.0 48 +6 +7 1020.8 930.0
18 21.04 З 2 50 км 4/0
[Ci fib]
+4.0 -4.7 53 +2 +2 1022.0 930.4 +8.9
21 21.04 штиль 0 50 км 4/0
[Ac trans]
+4.0 -4.7 53 +4 +4 1021.8 930.2
00 22.04 З 1 50 км ясно +5.0 -4.4 51 +4 +4 1021.0 929.8
03 22.04 З 1 50 км ясно +3.8 -3.5 59 +3 +3 1021.4 929.8 +2.6
06 22.04 СЗ 1 50 км 6/5 600 м
[Cu med, cong Ac lent]
+6.8 -3.2 49 +6 +10 1020.9 930.3 +2.6
09 22.04 С 3 50 км 8/8 600 м
[Cu med, cong]
+7.7 -2.8 47 +6 +8 1021.3 930.9
12 22.04 С 2 50 км 8/8 600 м
[Cu hum]
+8.6 -4.2 40 +7 +10 1021.3 931.2
15 22.04 С 1 50 км 8/8 600 м
[Cu Sc]
+8.1 -1.0 53 +8 +8 1022.3 932.0
18 22.04 штиль 0 20 км 10/10 600 м
[Sc]
+5.5 -0.3 66 +5 +5 1024.5 933.2 +9.8
21 22.04 штиль 0 20 км 10/10 600 м
[Sc]
+7.0 -1.5 55 +7 +7 1024.3 933.5
00 23.04 штиль 0 20 км 10/0
[Ac und]
+6.4 -2.3 54 +6 +6 1024.9 933.8
03 23.04 штиль 0 50 км 9/0
[Ac trans]
+6.4 -2.3 54 +6 +6 1025.5 934.4 +5.1
06 23.04 СВ 1 20 км 6/6 600 м
[Cu hum]
+10.4 -2.3 41 +11 +14 1025.3 935.4 +5.5
09 23.04 В 1 20 км 8/8 300 м
[Cu Sc]
+8.9 -1.8 47 +9 +13 1027.2 936.7
15 23.04 штиль 0 50 км 3/3 1000 м
[Sc Ac trans]
+8.7 +2.6 66 +8 +10 1027.6 937.0
18 23.04 З 1 50 км ясно +5.3 +1.8 78 +4 +4 1029.3 937.5 +10.9
21 23.04 штиль 0 50 км ясно +5.2 +1.1 75 +4 +4 1029.5 937.7
00 24.04 штиль 0 50 км ясно +4.3 +0.4 76 +3 +3 1029.4 937.3
03 24.04 З 1 50 км ясно +4.0 +0.3 77 +3 +3 1029.4 937.2 +3.4
06 24.04 В 1 20 км 9/0
[Cs]
+7.6 +0.5 61 +7 +14 1029.0 937.9 +3.4
09 24.04 В 1 10 км 9/4 300 м
[Cu med, cong Cs]
+8.8 +2.8 66 +8 +18 опасность
простуды
1029.4 938.8
12 24.04 В 1 10 км 9/6 300 м
[Cu Sc Cs]
+10.1 +3.0 61 +10 +15 1028.6 938.4
15 24.04 штиль 0 20 км 8/0
[Cs]
+7.4 +4.7 83 +7 +9 1029.0 938.0
18 24.04 З 1 20 км ясно +5.1 +3.2 88 +4 +4 1029.6 937.8 +10.7
21 24.04 штиль 0 20 км ясно +4.8 -0.5 69 +4 +4 1029.3 937.4
00 25.04 штиль 0 20 км ясно +4.9 -3.0 57 +4 +4 1028.9 937.0
03 25.04 штиль 0 20 км ясно +4.8 -3.9 53 +4 +5 1028.9 937.0 +3.2
06 25.04 В 2 50 км 8/0
[Ci fib]
+10.1 -2.0 43 +9 +15 1027.9 937.7 +3.2
09 25.04 В 2 50 км 6/0
[Ci fib]
+12.6 -2.6 35 +12 +27 опасность
простуды
1027.6 938.1
12 25.04 В 1 50 км 3/0
[Ci fib]
+14.2 -2.3 32 +15 +29 опасность
простуды
1026.4 937.5

 

Местоположение метеостанции Ангарский Перевал (Крым, Россия): широта 44.75 долгота 34.35 высота над уровнем моря 769 м.

В архиве по умолчанию представлена погода на Ангарском Перевале за последнюю неделю. Архивные данные за месяц целиком и за предыдущие месяцы, начиная с января 2011 года, Вы можете получить, выбрав интересующий диапазон дат из раскрывающегося списка и нажав кнопку "Ввод!".


*Определитесь, кто Вы:
робот инопланетянин человек

Внимание! Время в таблицах - всемирное. Для получения местного времени необходимо прибавить поправку, которая равна 3 ч.

Смотрите также архив погоды в соседних городах и на ближайших метеорологических станциях:

Погода в Алуште (Крым, Россия) (10 км)
Погода в Никитском саду (Крым, Россия) (27 км)
Погода в Симферополе город (Крым, Россия) (29 км)
Погода в Почтовом (Крым, Россия) (33 км)
Погода в Ялте (Крым, Россия) (33 км)
Погода на Ай-Петри (Крым, Россия) (38 км)
Погода в Белогорске (Крым, Россия) (39 км)
Погода в Симферополе (Крым, Россия) (43 км)
Погода в Севастополе (город Севастополь, Россия) (66 км)
Погода в Карадаге (Крым, Россия) (69 км)

Пояснения к столбцам:

Ветер - указаны скорость ветра в м/с - средняя за 10 мин, порывы в срок и между сроками (в фигурных скобках) и направление, откуда дует ветер: С - северный, СВ - северо-восточный, В - восточный, ЮВ - юго-восточный, Ю - южный, ЮЗ - юго-западный, З - западный, СЗ - северо-западный.
Видимость - горизонтальная дальность видимости в метрах или километрах. При видимости от 1 до 10 км при отсутствии осадков обычно наблюдается дымка, при ухудшении видимости до 1 км и менее - туман. В сухую погоду видимость может ухудшаться дымом, пылью или мглою.
Явления - указаны атмосферные явления, наблюдавшиеся в срок или в последний час перед сроком; фигурными скобками обозначены явления, наблюдавшиеся между сроками (за 1-3 часа до срока); квадратными скобками обозначены град или гололедные отложения с указанием их диаметра в мм.
Облачность - указаны через наклонную черту общая и нижняя облачность в баллах и высота нижней границы облаков в метрах; квадратными скобками обозначены формы облаков: Ci - перистые, Cs - перисто-слоистые, Cc - перисто-кучевые, Ac - высококучевые, As - высокослоистые, Sc - слоисто-кучевые, Ns - слоисто-дождевые, Cu - кучевые, Cb - кучево-дождевые. Подробнее классификацию облаков см. в Атласе облаков (PDF).
T - Температура воздуха - температура, измеренная на высоте 2 м над землей.
Td - Температура точки росы - температура, при понижении до которой содержащийся в воздухе водяной пар достигнет насыщения.
f - Относительная влажность воздуха - влажноcть воздуха, измеренная на высоте 2 м над землей.
Te - Эффективная температура - температура, которую ощущает одетый по сезону человек в тени. Характеристика душности погоды. При расчете учитывается влияние влажности воздуха и скорости ветра на теплоощущения человека.
Tes - Эффективная температура на солнце - температура, которую ощущает человек, с поправкой на солнечный нагрев. Характеристика знойности погоды. Зависит от высоты солнца над горизонтом, облачности и скорости ветра. Ночью, в пасмурную погоду, а также при ветре 12 м/с и более поправка равна нулю.
P - Атмосферное давление - приведенное к уровню моря атмосферное давление.
Po - Атмосферное давление - измеренное на уровне метеостанции атмосферное давление.
Tmin - Минимальная температура - минимум температуры воздуха на высоте 2 м над землей.
Tmax - Максимальная температура - максимум температуры воздуха на высоте 2 м над землей.
R - Количество осадков - Количество выпавших осадков за период времени, мм. При наведении курсора мыши на число - период времени, за который выпало указанное количество осадков.
R24 - Количество осадков - Количество выпавших осадков за 24 часа, мм.
S - Снежный покров - Высота снежного покрова, см. При наведении курсора мыши на число - состояние снежного покрова и степень покрытия местности в баллах.